TimeMDT,TemperatureF,Dew PointF,Humidity,Sea Level PressureIn,VisibilityMPH,Wind Direction,Wind SpeedMPH,Gust SpeedMPH,PrecipitationIn,Events,Conditions,WindDirDegrees,DateUTC
12:23 AM,42.1,39.0,89,29.68,10.0,North,13.8,21.9,N/A,,Overcast,10,2014-03-11 06:23:00
12:52 AM,39.9,37.0,89,29.66,10.0,NE,11.5,-,N/A,,Overcast,50,2014-03-11 06:52:00
1:29 AM,39.0,34.0,82,29.68,10.0,NE,15.0,21.9,N/A,,Overcast,40,2014-03-11 07:29:00
1:52 AM,37.0,30.9,79,29.68,10.0,NNE,19.6,26.5,N/A,,Overcast,30,2014-03-11 07:52:00
2:52 AM,36.0,30.9,82,29.70,10.0,NNE,17.3,-,N/A,,Overcast,30,2014-03-11 08:52:00
3:12 AM,35.1,30.9,85,29.72,10.0,NNE,15.0,23.0,N/A,,Overcast,20,2014-03-11 09:12:00
3:52 AM,35.1,32.0,89,29.73,10.0,NNE,15.0,24.2,N/A,,Overcast,30,2014-03-11 09:52:00
4:22 AM,34.0,32.0,92,29.76,10.0,NNE,17.3,-,N/A,,Overcast,20,2014-03-11 10:22:00
4:52 AM,33.1,32.0,96,29.78,4.0,NNE,13.8,19.6,0.00,,Overcast,20,2014-03-11 10:52:00
5:05 AM,33.1,30.9,92,29.78,4.0,NNE,13.8,23.0,0.00,Rain,Light Rain,20,2014-03-11 11:05:00
5:34 AM,33.1,30.9,92,29.79,4.0,NE,20.7,27.6,0.00,Rain,Light Rain,40,2014-03-11 11:34:00
5:52 AM,32.0,30.9,96,29.81,4.0,NNE,19.6,27.6,0.00,Rain,Light Rain,30,2014-03-11 11:52:00
5:56 AM,32.0,30.9,96,29.81,5.0,NNE,18.4,26.5,0.00,Rain,Light Freezing Rain,30,2014-03-11 11:56:00
6:34 AM,32.0,30.0,92,29.84,5.0,NNE,13.8,21.9,0.00,Rain,Light Freezing Rain,20,2014-03-11 12:34:00
6:42 AM,32.0,30.0,92,29.85,5.0,NNE,13.8,23.0,0.00,Rain,Light Freezing Rain,20,2014-03-11 12:42:00
6:50 AM,32.0,30.2,93,29.86,3.0,NNE,13.8,-,0.00,,Overcast,20,2014-03-11 12:50:00
6:52 AM,32.0,30.0,92,29.88,3.0,North,10.4,-,0.00,Snow,Light Snow,10,2014-03-11 12:52:00
7:00 AM,32.0,30.0,92,29.87,2.5,NNE,13.8,-,0.00,Snow,Light Snow,20,2014-03-11 13:00:00
7:19 AM,32.0,30.0,92,29.88,3.0,North,13.8,-,0.00,Snow,Light Snow,10,2014-03-11 13:19:00
7:33 AM,32.0,30.0,92,29.89,1.8,NNE,11.5,-,0.00,Snow,Light Snow,20,2014-03-11 13:33:00
7:52 AM,32.0,30.0,92,29.93,1.8,North,15.0,-,0.00,Snow,Light Snow,10,2014-03-11 13:52:00
8:01 AM,32.0,30.0,92,29.91,2.5,North,13.8,-,0.00,Snow,Light Snow,10,2014-03-11 14:01:00
8:11 AM,32.0,30.0,92,29.92,1.8,North,10.4,-,0.00,Snow,Light Snow,360,2014-03-11 14:11:00
8:18 AM,32.0,30.0,92,29.93,1.5,North,10.4,-,0.00,Snow,Light Snow,350,2014-03-11 14:18:00
8:38 AM,32.0,30.0,92,29.94,1.5,North,15.0,-,0.00,Snow,Light Snow,360,2014-03-11 14:38:00
8:52 AM,32.0,30.0,92,29.98,3.0,North,16.1,24.2,0.00,Snow,Light Snow,10,2014-03-11 14:52:00
9:05 AM,32.0,30.0,92,29.97,2.0,North,17.3,-,0.00,Snow,Light Snow,10,2014-03-11 15:05:00
9:11 AM,32.0,30.0,92,29.97,1.2,North,15.0,-,0.00,Snow,Light Snow,360,2014-03-11 15:11:00
9:35 AM,32.0,30.0,92,29.99,1.0,North,18.4,26.5,0.00,Snow,Light Snow,360,2014-03-11 15:35:00
9:39 AM,32.0,30.0,92,29.99,0.8,North,18.4,26.5,0.00,Snow,Light Snow,10,2014-03-11 15:39:00
9:52 AM,32.0,30.0,92,30.04,1.0,North,17.3,24.2,0.01,Snow,Light Snow,10,2014-03-11 15:52:00
10:00 AM,32.0,30.0,92,30.01,1.2,North,15.0,26.5,0.00,Snow,Light Snow,10,2014-03-11 16:00:00
10:38 AM,33.1,30.9,92,30.03,0.8,North,15.0,-,0.00,Snow,Light Snow,360,2014-03-11 16:38:00
10:45 AM,34.0,30.9,89,30.04,1.2,North,16.1,-,0.00,Snow,Light Snow,360,2014-03-11 16:45:00
10:52 AM,33.1,30.9,92,30.09,1.2,North,13.8,24.2,0.00,Snow,Light Snow,360,2014-03-11 16:52:00
11:23 AM,35.1,30.9,85,30.06,2.5,North,18.4,23.0,0.01,Snow,Light Snow,350,2014-03-11 17:23:00
11:27 AM,35.1,32.0,89,30.06,3.0,North,19.6,26.5,0.01,Snow,Light Snow,350,2014-03-11 17:27:00
11:34 AM,35.1,32.0,89,30.07,7.0,North,19.6,27.6,0.01,Snow,Light Snow,350,2014-03-11 17:34:00
11:52 AM,36.0,33.1,89,30.12,10.0,North,19.6,27.6,0.01,,Overcast,350,2014-03-11 17:52:00
12:52 PM,36.0,30.0,79,30.15,10.0,North,23.0,32.2,N/A,,Overcast,350,2014-03-11 18:52:00
1:52 PM,37.9,30.0,73,30.17,10.0,North,21.9,31.1,N/A,,Overcast,350,2014-03-11 19:52:00
2:29 PM,39.0,28.9,67,30.13,10.0,North,21.9,27.6,N/A,,Mostly Cloudy,350,2014-03-11 20:29:00
2:52 PM,39.0,27.0,62,30.20,10.0,North,21.9,35.7,N/A,,Mostly Cloudy,10,2014-03-11 20:52:00
3:52 PM,39.0,25.0,57,30.22,10.0,North,21.9,29.9,N/A,,Scattered Clouds,360,2014-03-11 21:52:00
4:52 PM,37.9,24.1,57,30.25,10.0,North,18.4,29.9,N/A,,Scattered Clouds,350,2014-03-11 22:52:00
5:52 PM,37.9,24.1,57,30.28,10.0,North,18.4,29.9,N/A,,Partly Cloudy,350,2014-03-11 23:52:00
6:52 PM,36.0,24.1,62,30.31,10.0,NNW,11.5,-,N/A,,Clear,330,2014-03-12 00:52:00
7:52 PM,32.0,23.0,69,30.34,10.0,NNW,5.8,-,N/A,,Clear,330,2014-03-12 01:52:00
8:52 PM,28.0,21.9,78,30.35,10.0,SSW,4.6,-,N/A,,Clear,210,2014-03-12 02:52:00
9:52 PM,25.0,21.9,88,30.36,10.0,SSW,5.8,-,N/A,,Scattered Clouds,210,2014-03-12 03:52:00
10:52 PM,28.0,23.0,81,30.35,10.0,Calm,Calm,-,N/A,,Mostly Cloudy,0,2014-03-12 04:52:00
11:52 PM,28.0,21.0,75,30.33,10.0,West,4.6,-,N/A,,Overcast,280,2014-03-12 05:52:00